Location: *
(50.9167°S, 179.4000°W)
Time: 19:29:58
(UTC+00:00)

Cosmos 2251 Rocket - Pass Details

Date: 03 March 2024
Orbit: 764 x 789 km, 74.0° (Epoch: 16 April)

Event Time Altitude Azimuth Distance (km) Brightness Sun altitude
Exits shadow 15:48:58 22° 328° (NNW) 1,643 4.7 -15.8°
Maximum altitude 15:52:26 76° 244° (WSW) 814 3.5 -15.4°
Drops below altitude 10° 15:57:50 10° 158° (SSE) 2,367 6.8 -14.6°
Sets 16:00:16 0° 156° (SSE) 3,306 7.7 -14.3°
